Timeline UpdatesTrip UpdatesNews PostsPvt PostsTravel TipsAdmin PostsConv PostsFollowed PostsChat RequestsBlog PostsPNR Posts

Disclaimer
Search
 
 
Tue Jul 29, 2014 18:14:48 ISTHomeTrainsΣChainsAtlasPNRForumGalleryNewsFAQTripsMembersLoginFeedback
No Recent News for this Train
Other Trains in the News **new
Latest...
.
Fri Mar 14, 2014 (07:42PM)
⇐ Return Journey: Train# 16210

16209/Ajmer-Mysore Express

Mar 14 2014 (7:42PM)
Change Departure Station:
Change Arrival Station:
Post a Train Travel TipPost a Train Travel Tip **new
Post a Comment/Question/Picture/VideoPost a Comment/Question/Picture/Video
Pantry/Catering
✓ Pantry Car Avbl
✓ Catering Avbl
RSA - Rake Sharing
16217/16218 Mysore-Shirdi Express
Rake/Coach Composition
LOCO-SLR-GEN-S13-S12-S11-S10-S9-S8-S7-S6-S5-S4-PC-S3-S2-S1-B2-B1-A2-A1-GEN-GEN-SLR; Total 23 coaches
Loco
Ubl wdp4/4b
News    PNR    Forum    Time-Table    Availability    Fare Chart    Map    Arr/Dep History    Trips    Gallery    ΣChains    X/O    Timeline    
Travel Time: 16h 40m    14 halts    Distance: 749 km    Avg Speed: 44 km/hr
Type: Mail/Express
Zone: SWR/South Western
Departs @ 10:35 (Avg on time)
Platform# 1
 M    S
Miraj Junction/MRJ 
Arrives @ 03:15 +1 night (Avg 7m late)
Platform# 8
S T    
Bangalore City Junction/SBC 

14 halts. 101 intermediate Stations between Miraj Junction and Bangalore City Junction

Show ALL intermediate Stations  Show Old Time-Table

#CodeStation NameX/OArrivesAvgDepartsAvgHaltPFDay#KmSpeedElevZoneAddress
1AIIAjmer Junction (5)  -05:35+011-1405.275464mNWRPin: 305001, Rajasthan
2BERBeawar (2)  06:17+1206:19+122m--1-1353.068447mNWRBeawar, Rajasthan
3SODSojat Road (2)  07:18+1007:20+112m11-1286.555295mNWRSojat Road, Rajasthan
4MJMarwar Junction (4)X  07:43+907:45+122m61-1265.681267mNWRMarwar Junction, Rajasthan
5FAFalna (2)  08:34+1908:36+202m--1-1199.167282mNWRFalna, Rajasthan
6SOHSirohi Road (2)  09:25+2009:27+212m--1-1144.168369mNWRPindwara, Rajasthan
7ABRAbu Road (3)X  10:06+2610:25+1919m21-1100.238264mNWRSirohi Dist, Rajasthan
8PNUPalanpur Junction (5)X  11:48+411:50+132m11-1047.652216mWRPalanpur, Gujarat
9MSHMahesana Junction (6)X  13:05+1213:07+172m21-982.65395mWRMehsana, Gujarat
10ADIAhmedabad Junction (12)  14:30+514:50+120m41-909.65451mWRAhmedabad, Gujarat
11NDNadiad Junction (4)  15:41+2315:43+232m--1-864.16237mWRNadiad, Gujarat
12ANNDAnand Junction (6)X  16:01+2616:03+262m--1-845.65544mWRAnand, Gujarat
13BRCVadodara Junction (7)X  16:42+2916:52+2910m11-809.89036mWRVadodara 390005, Gujarat
14BHBharuch Junction (5)X  17:39+2817:41+232m41-739.34219mWRBharuch, Gujarat
15STSurat (4)X  19:05+2219:15+2410m21-680.06119mWRSurat 395001, Gujarat
16BLValsad (3)X  20:23+1820:25+222m--1-611.36615mWRValsad, Gujarat
17VAPIVapi (3)  20:49+2420:51+242m--1-585.14427mWRVapi, Gujarat
18BSRVasai Road (7)X  23:35+023:40+55m51-464.0537mWRThane-401202, Maharashtra
19BIRDBhiwandi Road (4)  00:11+1000:13+112m--2-436.72126mCRBhiwandi, Maharashtra
20KYNKalyan Junction (8)  01:05+001:10+85m62-418.74810mCRKalyan 421301, Maharashtra
21KJTKarjat Junction (4)X  02:08+802:10+132m12-371.93657mCRKarjat, Maharashtra
22LNLLonavala (3)X  02:58+403:00+72m12-343.255623mCRLonavala 410401, Maharashtra
23PUNEPune Junction (6)X  04:10+504:20+1310m22-279.651556mCRPune 411001, Maharashtra
24STRSatara (3)  07:10+2307:13+243m12-133.964637mCRSatara, Maharashtra
25KRDKarad (3)  08:08+2408:10+262m12-75.253597mCRDist- Satara., Maharashtra
26SLISangli (3)X  09:27+809:30+153m32-7.37559mCRSangli, Maharashtra
27MRJ»Miraj Junction (6)»  10:30+010:35+05m120.048554mCRMiraj 416410, Maharashtra
28BGMBelgaum (3)  13:25+2613:30+295m22137.468752mSWRBelgaum 590001, Karnataka
29LDLonda Junction (3)  14:15+4314:17+452m12188.734643mSWRLonda, Karnataka
30DWRDharwad (4)X  16:20+1416:25+165m22259.218737mSWRDharwad 580001, Karnataka
31UBLHubli Junction (5)  17:30-117:40+310m12279.264640mSWRHubli - 580020, Karnataka
32HVRHaveri (3)  18:50+1718:52+192m--2354.357558mSWRHaveri, Karnataka
33RNRRanibennur (3)X  19:26+2619:28+302m--2386.938583mSWRRanebennur, Karnataka
34HRRHarihar (3)  20:05+2320:10+285m--2410.255553mSWRHarihar, Karnataka
35DVGDavangere (2)  20:24+3220:27+323m--2423.068598mSWRDavanagere, Karnataka
36RRBBirur Junction (3)  22:08+4122:10+412m--2538.054802mSWRBirur, Karnataka
37ASKArsikere Junction (3)X  23:00+3323:05+415m--2583.055816mSWRArsikere, Karnataka
38TTRTiptur (4)X  23:33+3523:35+372m12608.538860mSWRTiptur, Karnataka
39TKTumkur (3)  01:28+2401:30+252m13679.545823mSWRTumkur, Karnataka
40YPRYesvantpur Junction (6)  02:55+803:00+85m--3743.521919mSWRBengaluru 560022, Karnataka
41MWMMalleswaram (2)  03:08+003:10+02m--3746.334916mSWRBengaluru, Karnataka
42SBC•Bangalore City Junction (10)•  03:15+703:45+1030m83749.178903mSWRBengaluru-560023, Karnataka
43RMGMRamanagaram (4)04:19-04:20-1m--3793.561692mSWRRamanagaram, Karnataka
44MYAMandya (3)  05:08+2605:10+262m--3842.138672mSWRMandya, Karnataka
45MYSMysore Junction (6)  06:20+25-43886.3-760mSWRTel No 0821-2521751.URL: www.mysorerailwaystation.in, Karnataka
Scroll to Top
Scroll to Bottom